Weather reports worldwide

Advertisment
Ustica, Italy (16400): temperature & dewpoint: 09.07.2018 21:00:00 - 15.07.2018 21:00:00 (CEST)Ustica, Italy (16400): wind speed: 09.07.2018 21:00:00 - 15.07.2018 21:00:00 (CEST)Ustica, Italy (16400): wind direction: 09.07.2018 21:00:00 - 15.07.2018 21:00:00 (CEST)Ustica, Italy (16400): reduced air pressure: 09.07.2018 21:00:00 - 15.07.2018 21:00:00 (CEST)Ustica, Italy (16400): visibility: 09.07.2018 21:00:00 - 15.07.2018 21:00:00 (CEST)Ustica, Italy (16400): sunshine duration: 09.07.2018 21:00:00 - 15.07.2018 21:00:00 (CEST)
Date & Time tt [°C] td [°C] ff [km/h] ff [kn] dd ppp [hPa] vv [km] sd [min]
15.07.2018 21:00:00 - - - - - - - -
15.07.2018 20:00:00 26,8 25,2 18 10 WNW 1013,6 20 0
15.07.2018 19:00:00 27,4 25,8 22 12 WNW 1013,5 20 60
15.07.2018 18:00:00 28,0 27,0 18 10 NW 1013,4 20 30
15.07.2018 17:00:00 27,8 26,7 26 14 WNW 1013,5 20 54
15.07.2018 16:00:00 27,0 25,6 26 14 WNW 1013,6 20 42
15.07.2018 15:00:00 28,0 27,0 21 11 W 1014,1 20 36
15.07.2018 14:00:00 27,6 26,6 21 11 SSW 1013,6 20 0
15.07.2018 13:00:00 27,0 26,0 21 11 SSW 1014,1 20 12
15.07.2018 12:00:00 26,2 25,2 18 10 SSW 1013,7 20 36
15.07.2018 11:00:00 25,8 24,9 18 10 SSW 1013,6 20 24
15.07.2018 10:00:00 25,8 24,9 18 10 SSW 1013,7 20 12
15.07.2018 09:00:00 25,0 23,2 18 10 SSW 1013,8 20 0
15.07.2018 08:00:00 25,0 23,4 13 7 SSW 1013,6 20 0
15.07.2018 07:00:00 - - - - - - - -
15.07.2018 06:00:00 - - - - - - - -
15.07.2018 05:00:00 - - - - - - - -
15.07.2018 04:00:00 - - - - - - - -
15.07.2018 03:00:00 - - - - - - - -
15.07.2018 02:00:00 - - - - - - - -
15.07.2018 01:00:00 - - - - - - - -
15.07.2018 00:00:00 - - - - - - - -
14.07.2018 23:00:00 - - - - - - - -
14.07.2018 22:00:00 - - - - - - - -
14.07.2018 21:00:00 - - - - - - - -
14.07.2018 20:00:00 26,8 24,8 28 15 SE 1014,4 20 0
14.07.2018 19:00:00 27,0 25,4 22 12 SE 1016,6 20 42
14.07.2018 18:00:00 27,4 25,4 28 15 ESE 1015,9 20 60
14.07.2018 17:00:00 27,4 24,1 26 14 ESE 1014,9 20 60
14.07.2018 16:00:00 28,0 26,8 22 12 SE 1016,5 20 60
14.07.2018 15:00:00 27,8 26,7 21 11 SE 1017,3 20 60
14.07.2018 14:00:00 27,8 26,7 22 12 ESE 1016,8 20 60
14.07.2018 13:00:00 27,8 26,7 22 12 ESE 1016,5 20 60
14.07.2018 12:00:00 26,6 25,0 18 10 SE 1017,4 20 60
14.07.2018 11:00:00 26,2 24,4 21 11 SE 1017,0 20 60
14.07.2018 10:00:00 25,4 24,4 16 9 ESE 1017,2 20 60
14.07.2018 09:00:00 25,0 23,6 22 12 SE 1016,8 20 60
14.07.2018 08:00:00 25,4 25,1 22 12 ESE 1016,5 20 12
14.07.2018 07:00:00 - - - - - - - -
14.07.2018 06:00:00 - - - - - - - -
14.07.2018 05:00:00 - - - - - - - -
14.07.2018 04:00:00 - - - - - - - -
14.07.2018 03:00:00 - - - - - - - -
14.07.2018 02:00:00 - - - - - - - -
14.07.2018 01:00:00 - - - - - - - -
14.07.2018 00:00:00 - - - - - - - -
13.07.2018 23:00:00 - - - - - - - -
13.07.2018 22:00:00 - - - - - - - -
13.07.2018 21:00:00 - - - - - - - -
13.07.2018 20:00:00 27,4 25,6 15 8 SE 1016,3 30 12
13.07.2018 19:00:00 28,2 26,4 16 9 ESE 1016,4 30 60
13.07.2018 18:00:00 28,2 27,1 16 9 ESE 1016,5 30 60
13.07.2018 17:00:00 28,0 27,1 16 9 SE 1016,3 20 60
13.07.2018 16:00:00 26,0 24,4 35 19 WNW 1016,6 30 60
13.07.2018 15:00:00 27,0 25,4 15 8 S 1016,6 30 60
13.07.2018 14:00:00 26,0 23,9 11 6 ESE 1016,6 25 60
13.07.2018 13:00:00 26,0 24,4 22 12 ESE 1017,7 30 60
13.07.2018 12:00:00 26,0 24,8 24 13 ESE 1017,7 30 60
13.07.2018 11:00:00 26,0 25,0 22 12 ESE 1017,7 20 60
13.07.2018 10:00:00 27,0 25,2 9 5 ESE 1017,5 30 60
13.07.2018 09:00:00 26,0 26,0 13 7 ESE 1016,7 30 60
13.07.2018 08:00:00 26,0 26,0 16 9 ESE 1016,6 30 0
13.07.2018 07:00:00 - - - - - - - -
13.07.2018 06:00:00 - - - - - - - -
13.07.2018 05:00:00 - - - - - - - -
13.07.2018 04:00:00 - - - - - - - -
13.07.2018 03:00:00 - - - - - - - -
13.07.2018 02:00:00 - - - - - - - -
13.07.2018 01:00:00 - - - - - - - -
13.07.2018 00:00:00 - - - - - - - -
12.07.2018 23:00:00 - - - - - - - -
12.07.2018 22:00:00 - - - - - - - -
12.07.2018 21:00:00 - - - - - - - -
12.07.2018 20:00:00 27,6 27,6 0 0 N 1015,8 30 60
12.07.2018 19:00:00 27,0 24,5 15 8 N 1015,9 30 60
12.07.2018 18:00:00 28,0 24,2 4 2 NNE 1016,0 30 60
12.07.2018 17:00:00 28,4 25,0 4 2 SW 1016,1 20 60
12.07.2018 16:00:00 28,4 22,9 8 4 NE 1016,3 30 60
12.07.2018 15:00:00 28,0 23,2 8 4 NE 1016,5 30 60
12.07.2018 14:00:00 28,0 23,4 5 3 NE 1016,4 30 60
12.07.2018 13:00:00 27,0 27,0 8 4 E 1016,5 25 60
12.07.2018 12:00:00 26,0 26,0 8 4 E 1016,2 25 60
12.07.2018 11:00:00 26,0 25,8 16 9 SE 1016,2 25 60
12.07.2018 10:00:00 26,0 24,2 15 8 WSW 1016,1 25 60
12.07.2018 09:00:00 25,0 24,1 15 8 SW 1015,8 25 60
12.07.2018 08:00:00 25,0 24,1 13 7 WSW 1015,7 20 0
12.07.2018 07:00:00 - - - - - - - -
12.07.2018 06:00:00 - - - - - - - -
12.07.2018 05:00:00 - - - - - - - -
12.07.2018 04:00:00 - - - - - - - -
12.07.2018 03:00:00 - - - - - - - -
12.07.2018 02:00:00 - - - - - - - -
12.07.2018 01:00:00 - - - - - - - -
12.07.2018 00:00:00 - - - - - - - -
11.07.2018 23:00:00 - - - - - - - -
11.07.2018 22:00:00 - - - - - - - -
11.07.2018 21:00:00 - - - - - - - -
11.07.2018 20:00:00 26,0 26,0 0 0 N 1014,3 25 60
11.07.2018 19:00:00 27,2 25,8 11 6 ESE 1014,0 25 60
11.07.2018 18:00:00 27,2 25,6 9 5 SW 1014,0 25 60
11.07.2018 17:00:00 27,0 25,2 22 12 ESE 1014,5 20 60
11.07.2018 16:00:00 27,0 25,2 22 12 SSW 1014,5 20 60
11.07.2018 15:00:00 27,0 25,2 8 4 SSE 1014,5 20 60
11.07.2018 14:00:00 27,0 25,2 4 2 ESE 1014,5 20 60
11.07.2018 13:00:00 27,0 25,2 11 6 S 1014,4 20 60
11.07.2018 12:00:00 27,0 25,4 5 3 SW 1014,5 20 60
11.07.2018 11:00:00 26,0 24,2 16 9 SSE 1014,6 20 60
11.07.2018 10:00:00 25,0 23,8 11 6 S 1014,6 20 60
11.07.2018 09:00:00 24,4 23,5 15 8 S 1014,7 20 60
11.07.2018 08:00:00 24,2 23,3 0 0 N 1014,7 20 0
11.07.2018 07:00:00 - - - - - - - -
11.07.2018 06:00:00 - - - - - - - -
11.07.2018 05:00:00 - - - - - - - -
11.07.2018 04:00:00 - - - - - - - -
11.07.2018 03:00:00 - - - - - - - -
11.07.2018 02:00:00 - - - - - - - -
11.07.2018 01:00:00 - - - - - - - -
11.07.2018 00:00:00 - - - - - - - -
10.07.2018 23:00:00 - - - - - - - -
10.07.2018 22:00:00 - - - - - - - -
10.07.2018 21:00:00 - - - - - - - -
10.07.2018 20:00:00 27,0 25,6 0 0 N 1013,9 20 60
10.07.2018 19:00:00 27,0 25,0 0 0 N 1014,0 20 60
10.07.2018 18:00:00 27,0 25,0 0 0 N 1013,4 20 60
10.07.2018 17:00:00 27,0 24,3 0 0 N 1013,5 20 60
10.07.2018 16:00:00 27,0 23,2 0 0 N 1014,4 20 60
10.07.2018 15:00:00 27,0 24,3 0 0 N 1014,4 20 60
10.07.2018 14:00:00 27,0 24,3 0 0 N 1014,5 20 60
10.07.2018 13:00:00 27,0 23,2 0 0 N 1015,5 20 60
10.07.2018 12:00:00 26,0 23,5 4 2 WSW 1014,8 20 60
10.07.2018 11:00:00 26,0 23,3 0 0 N 1015,0 20 60
10.07.2018 10:00:00 25,0 23,2 8 4 SW 1014,9 20 60
10.07.2018 09:00:00 24,4 23,4 8 4 SSW 1014,9 20 60
10.07.2018 08:00:00 24,4 23,4 9 5 SSW 1014,9 20 0
10.07.2018 07:00:00 - - - - - - - -
10.07.2018 06:00:00 - - - - - - - -
10.07.2018 05:00:00 - - - - - - - -
10.07.2018 04:00:00 - - - - - - - -
10.07.2018 03:00:00 - - - - - - - -
10.07.2018 02:00:00 - - - - - - - -
10.07.2018 01:00:00 - - - - - - - -
10.07.2018 00:00:00 - - - - - - - -
09.07.2018 23:00:00 - - - - - - - -
09.07.2018 22:00:00 - - - - - - - -
09.07.2018 21:00:00 - - - - - - - -

tt = temperature
td = dewpoint
ff = wind speed
dd = wind direction
ppp = reduced air pressure
vv = visibility
sd = sunshine duration

Next stations